Weather History for KSYF - December, 2013

Change the Weather History Date:

Sunday, December 29, 2013

  Actual Average Record
Temperature  
Mean Temperature 20 °F -  
Max Temperature 30 °F 41 °F 36 °F (2012)
Min Temperature 10 °F 14 °F 3 °F (2014)
Degree Days  
Heating Degree Days 45    
Moisture  
Dew Point 7 °F    
Average Humidity 60    
Maximum Humidity 78    
Minimum Humidity 34    
Precipitation  
Precipitation 0.00 in - - ()
Sea Level Pressure  
Sea Level Pressure 30.20 in    
Wind  
Wind Speed 13 mph (WNW)    
Max Wind Speed 24 mph    
Max Gust Speed 31 mph    
Visibility 10 miles    
Events Snow    
Averages and records for this station are not official NWS values.
T = Trace of Precipitation, MM = Missing Value Source: NWS Daily Summary

Daily Weather History Graph

Daily Weather History Graph

Search for Another Location

Airport or City:

Trip Planner

Search our weather history database for the weather conditions in past years. The results will help you decide how hot, cold, wet, or windy it might be!

Date:

Astronomy

Dec. 29, 2013 Rise Set
Actual Time 8:07 AM CST 5:31 PM CST
Civil Twilight 7:37 AM CST 6:01 PM CST
Nautical Twilight 7:03 AM CST 6:35 PM CST
Astronomical Twilight 6:30 AM CST 7:08 PM CST
Moon 4:53 AM CST (12/29) 3:10 PM CST (12/29)
Length of Visible Light 10h 24m
Length of Day
9h 23m
Waning Crescent, 11% of the Moon is Illuminated
Dec 29
Waning Crescent
Jan 1
New
Jan 7
First Quarter
Jan 15
Full
Jan 23
Last Quarter

Hourly Weather History & Observations

Time (CST) Temp. Windchill Dew Point Humidity Pressure Visibility Wind Dir Wind Speed Gust Speed Precip Events Conditions
12:15 AM 17.6 °F -0.3 °F 6.6 °F 62% 30.22 in 10.0 mi North 24.2 mph 31.1 mph N/A   Overcast
12:35 AM 17.2 °F 1.2 °F 6.6 °F 63% 30.23 in 10.0 mi North 18.4 mph 27.6 mph N/A   Mostly Cloudy
12:55 AM 17.1 °F 0.1 °F 6.1 °F 62% 30.23 in 10.0 mi North 20.7 mph 29.9 mph N/A   Mostly Cloudy
1:15 AM 16.7 °F 0.1 °F 5.7 °F 62% 30.24 in 10.0 mi NNW 19.6 mph 26.5 mph N/A   Overcast
1:35 AM 16.0 °F -0.9 °F 5.0 °F 62% 30.24 in 10.0 mi NNW 19.6 mph 27.6 mph N/A   Overcast
1:55 AM 15.8 °F -0.6 °F 4.8 °F 62% 30.25 in 10.0 mi NNW 18.4 mph 26.5 mph N/A   Overcast
2:15 AM 14.9 °F 0.3 °F 7.9 °F 74% 30.25 in 4.0 mi NNW 13.8 mph 26.5 mph N/A Snow Light Snow
2:35 AM 14.5 °F -2.3 °F 8.8 °F 78% 30.26 in 4.0 mi NNW 18.4 mph 27.6 mph N/A Snow Light Snow
2:55 AM 14.4 °F -2.5 °F 8.6 °F 78% 30.27 in 5.0 mi NNW 18.4 mph 25.3 mph N/A Snow Light Snow
3:15 AM 14.0 °F -3.0 °F 7.5 °F 75% 30.28 in 10.0 mi NNW 18.4 mph 25.3 mph N/A   Mostly Cloudy
3:35 AM 14.5 °F -0.7 °F 6.8 °F 71% 30.28 in 10.0 mi NNW 15.0 mph 24.2 mph N/A   Overcast
3:55 AM 14.4 °F -1.0 °F 6.6 °F 71% 30.28 in 10.0 mi North 15.0 mph 23.0 mph N/A   Mostly Cloudy
4:15 AM 13.5 °F -2.1 °F 5.5 °F 71% 30.29 in 10.0 mi NNW 15.0 mph 19.6 mph N/A   Scattered Clouds
4:35 AM 12.6 °F -1.4 °F 4.8 °F 71% 30.29 in 10.0 mi NNW 11.5 mph - N/A   Clear
4:55 AM 11.8 °F -5.3 °F 3.7 °F 70% 30.30 in 10.0 mi North 17.3 mph 23.0 mph N/A   Clear
5:15 AM 11.3 °F -2.9 °F 3.0 °F 69% 30.30 in 10.0 mi North 11.5 mph - N/A   Clear
5:35 AM 10.8 °F -5.0 °F 3.2 °F 72% 30.29 in 10.0 mi NNW 13.8 mph 18.4 mph N/A   Clear
5:55 AM 10.9 °F -5.4 °F 2.1 °F 68% 30.29 in 10.0 mi North 15.0 mph - N/A   Clear
6:15 AM 10.9 °F -2.6 °F 2.5 °F 69% 30.30 in 10.0 mi NNW 10.4 mph - N/A   Clear
6:35 AM 10.6 °F -3.8 °F 2.8 °F 71% 30.30 in 10.0 mi NNW 11.5 mph - N/A   Clear
6:55 AM 10.9 °F -3.4 °F 2.8 °F 70% 30.31 in 10.0 mi NNW 11.5 mph - N/A   Clear
7:15 AM 11.1 °F -1.6 °F 2.8 °F 69% 30.31 in 10.0 mi NNW 9.2 mph - N/A   Clear
7:35 AM 10.8 °F -1.1 °F 2.8 °F 70% 30.31 in 10.0 mi NW 8.1 mph - N/A   Clear
7:55 AM 10.4 °F -0.4 °F 3.2 °F 73% 30.31 in 10.0 mi NNW 6.9 mph - N/A   Clear
8:15 AM 10.9 °F 0.2 °F 3.7 °F 73% 30.31 in 10.0 mi NNW 6.9 mph - N/A   Clear
8:35 AM 10.0 °F 1.8 °F 3.2 °F 74% 30.31 in 10.0 mi North 4.6 mph - N/A   Clear
8:55 AM 10.9 °F 2.9 °F 3.9 °F 73% 30.32 in 10.0 mi NNW 4.6 mph - N/A   Clear
9:15 AM 12.2 °F 4.3 °F 4.8 °F 72% 30.32 in 10.0 mi NNW 4.6 mph - N/A   Clear
9:35 AM 12.9 °F 3.8 °F 5.0 °F 71% 30.33 in 10.0 mi NW 5.8 mph - N/A   Clear
9:55 AM 14.4 °F 3.3 °F 5.9 °F 69% 30.32 in 10.0 mi NNW 8.1 mph - N/A   Clear
10:15 AM 15.4 °F 6.8 °F 6.1 °F 67% 30.33 in 10.0 mi NW 5.8 mph - N/A   Clear
10:35 AM 16.5 °F 5.1 °F 6.1 °F 64% 30.33 in 10.0 mi NNW 9.2 mph - N/A   Clear
10:55 AM 17.6 °F 6.4 °F 5.7 °F 60% 30.32 in 10.0 mi NW 9.2 mph - N/A   Clear
11:15 AM 18.9 °F 8.0 °F 6.1 °F 58% 30.31 in 10.0 mi NW 9.2 mph - N/A   Clear
11:35 AM 20.3 °F 10.6 °F 5.7 °F 53% 30.31 in 10.0 mi NNW 8.1 mph - N/A   Clear
11:55 AM 21.6 °F 13.0 °F 5.7 °F 51% 30.30 in 10.0 mi NW 6.9 mph - N/A   Clear
12:15 PM 23.0 °F 17.0 °F 5.2 °F 47% 30.28 in 10.0 mi NW 4.6 mph - N/A   Clear
12:35 PM 23.5 °F 17.6 °F 5.0 °F 45% 30.26 in 10.0 mi NNW 4.6 mph - N/A   Clear
12:55 PM 23.9 °F 16.8 °F 4.8 °F 44% 30.24 in 10.0 mi NW 5.8 mph - N/A   Clear
1:15 PM 25.0 °F 20.7 °F 5.2 °F 43% 30.23 in 10.0 mi West 3.5 mph - N/A   Clear
1:35 PM 26.6 °F 22.6 °F 5.2 °F 40% 30.21 in 10.0 mi WNW 3.5 mph - N/A   Clear
1:55 PM 27.0 °F 23.0 °F 5.2 °F 40% 30.21 in 10.0 mi WNW 3.5 mph - N/A   Clear
2:15 PM 28.2 °F 21.0 °F 5.0 °F 37% 30.20 in 10.0 mi WNW 6.9 mph - N/A   Clear
2:35 PM 29.1 °F 24.1 °F 5.4 °F 37% 30.20 in 10.0 mi NW 4.6 mph - N/A   Clear
2:55 PM 29.3 °F 23.2 °F 5.2 °F 36% 30.19 in 10.0 mi NW 5.8 mph - N/A   Clear
3:15 PM 29.7 °F 24.7 °F 5.2 °F 35% 30.19 in 10.0 mi West 4.6 mph - N/A   Clear
3:35 PM 30.0 °F - 5.2 °F 35% 30.18 in 10.0 mi Calm Calm - N/A   Clear
3:55 PM 30.4 °F - 5.0 °F 34% 30.17 in 10.0 mi Calm Calm - N/A   Clear
4:15 PM 30.4 °F 24.5 °F 5.2 °F 34% 30.16 in 10.0 mi SSW 5.8 mph - N/A   Clear
4:35 PM 30.2 °F 24.3 °F 5.2 °F 35% 30.15 in 10.0 mi SSW 5.8 mph - N/A   Clear
4:55 PM 29.3 °F 23.2 °F 5.0 °F 36% 30.15 in 10.0 mi South 5.8 mph - N/A   Clear
5:15 PM 27.3 °F 19.9 °F 5.2 °F 39% 30.14 in 10.0 mi South 6.9 mph - N/A   Clear
5:35 PM 24.1 °F 15.2 °F 5.0 °F 44% 30.13 in 10.0 mi South 8.1 mph - N/A   Clear
5:55 PM 22.6 °F 12.6 °F 5.0 °F 47% 30.13 in 10.0 mi South 9.2 mph - N/A   Clear
6:15 PM 22.5 °F 11.7 °F 5.9 °F 49% 30.12 in 10.0 mi South 10.4 mph - N/A   Clear
6:35 PM 21.6 °F 9.3 °F 6.1 °F 51% 30.11 in 10.0 mi South 12.7 mph - N/A   Clear
6:55 PM 20.1 °F 8.1 °F 6.3 °F 55% 30.10 in 10.0 mi South 11.5 mph - N/A   Clear
7:15 PM 21.0 °F 8.6 °F 6.4 °F 53% 30.09 in 10.0 mi South 12.7 mph - N/A   Clear
7:35 PM 20.3 °F 7.7 °F 7.0 °F 56% 30.08 in 10.0 mi South 12.7 mph - N/A   Clear
7:55 PM 22.1 °F 8.9 °F 8.6 °F 56% 30.07 in 10.0 mi South 15.0 mph - N/A   Clear
8:15 PM 22.1 °F 8.5 °F 8.6 °F 56% 30.05 in 10.0 mi South 16.1 mph - N/A   Clear
8:35 PM 22.5 °F 8.0 °F 9.3 °F 57% 30.04 in 10.0 mi SSW 18.4 mph - N/A   Clear
8:55 PM 22.1 °F 8.5 °F 10.2 °F 60% 30.03 in 10.0 mi SSW 16.1 mph - N/A   Clear
9:15 PM 20.5 °F 10.0 °F 10.4 °F 65% 30.03 in 10.0 mi SW 9.2 mph - N/A   Clear
9:35 PM 21.4 °F 10.4 °F 12.6 °F 69% 30.02 in 10.0 mi SSW 10.4 mph - N/A   Clear
9:55 PM 21.7 °F 10.2 °F 13.5 °F 70% 30.01 in 10.0 mi SSW 11.5 mph - N/A   Clear
10:15 PM 22.5 °F 11.1 °F 14.4 °F 71% 30.00 in 10.0 mi SSW 11.5 mph - N/A   Clear
10:35 PM 21.4 °F 10.4 °F 14.0 °F 73% 30.00 in 10.0 mi SSW 10.4 mph - N/A   Clear
10:55 PM 21.7 °F 13.2 °F 14.5 °F 74% 30.00 in 10.0 mi SSW 6.9 mph - N/A   Clear
11:15 PM 23.0 °F 12.4 °F 15.6 °F 73% 30.00 in 10.0 mi SW 10.4 mph - N/A   Scattered Clouds
11:35 PM 23.9 °F 12.9 °F 16.3 °F 73% 29.99 in 10.0 mi SW 11.5 mph - N/A   Scattered Clouds
11:55 PM 24.8 °F 15.3 °F 16.5 °F 71% 29.99 in 10.0 mi SW 9.2 mph - N/A   Mostly Cloudy